TimeEST,TemperatureF,Dew PointF,Humidity,Sea Level PressureIn,VisibilityMPH,Wind Direction,Wind SpeedMPH,Gust SpeedMPH,PrecipitationIn,Events,Conditions,WindDirDegrees,DateUTC
12:16 AM,50.0,30.9,48,29.69,6.0,NW,4.6,-,N/A,,Haze,310,2014-01-19 05:16:00
12:27 AM,43.0,30.9,62,29.69,5.0,NW,5.8,-,N/A,,Haze,320,2014-01-19 05:27:00
12:53 AM,39.0,30.9,73,29.70,10.0,West,3.5,-,N/A,,Overcast,280,2014-01-19 05:53:00
1:32 AM,46.9,30.9,54,29.72,10.0,West,5.8,-,N/A,,Overcast,270,2014-01-19 06:32:00
1:53 AM,48.9,30.9,50,29.72,10.0,West,4.6,-,N/A,,Overcast,280,2014-01-19 06:53:00
2:53 AM,36.0,30.9,82,29.70,7.0,Calm,Calm,-,N/A,,Overcast,0,2014-01-19 07:53:00
3:33 AM,57.9,30.9,36,29.71,5.0,SW,4.6,-,N/A,,Haze,230,2014-01-19 08:33:00
3:51 AM,46.4,30.2,53,29.71,7.0,WSW,4.6,-,N/A,,Overcast,250,2014-01-19 08:51:00
3:53 AM,46.0,30.9,56,29.71,7.0,WSW,3.5,-,N/A,,Overcast,240,2014-01-19 08:53:00
4:00 AM,57.0,30.9,37,29.71,8.0,WSW,5.8,-,N/A,,Overcast,240,2014-01-19 09:00:00
4:40 AM,46.0,30.0,54,29.71,10.0,West,4.6,-,N/A,,Overcast,260,2014-01-19 09:40:00
4:53 AM,52.0,30.0,43,29.71,10.0,SW,6.9,-,N/A,,Overcast,230,2014-01-19 09:53:00
5:18 AM,54.0,28.9,38,29.71,10.0,SW,5.8,-,N/A,,Overcast,230,2014-01-19 10:18:00
5:37 AM,51.1,28.9,43,29.71,10.0,SW,5.8,-,N/A,,Overcast,230,2014-01-19 10:37:00
5:53 AM,50.0,28.9,44,29.70,10.0,WSW,5.8,-,N/A,,Overcast,240,2014-01-19 10:53:00
6:16 AM,48.0,28.0,46,29.69,10.0,WSW,4.6,-,N/A,,Overcast,250,2014-01-19 11:16:00
6:32 AM,55.9,28.0,34,29.70,10.0,SW,8.1,-,N/A,,Overcast,230,2014-01-19 11:32:00
6:39 AM,-9999,-9999,N/A,29.70,10.0,WSW,8.1,-,N/A,,Overcast,240,2014-01-19 11:39:00
6:53 AM,-9999,-9999,N/A,29.71,10.0,SW,10.4,-,N/A,,Overcast,230,2014-01-19 11:53:00
7:04 AM,-9999,-9999,N/A,29.71,10.0,WSW,6.9,-,N/A,,Overcast,240,2014-01-19 12:04:00
7:53 AM,-9999,-9999,N/A,29.70,10.0,SW,5.8,-,N/A,,Overcast,230,2014-01-19 12:53:00
8:25 AM,-9999,-9999,N/A,29.71,1.8,SW,8.1,-,N/A,,Overcast,220,2014-01-19 13:25:00
8:31 AM,-9999,-9999,N/A,29.70,0.8,SW,11.5,-,N/A,,Mist,230,2014-01-19 13:31:00
8:51 AM,-9999,-9999,N/A,29.70,1.0,SW,11.5,-,N/A,,Overcast,230,2014-01-19 13:51:00
8:53 AM,-9999,-9999,N/A,29.70,0.8,SW,13.8,-,N/A,,Overcast,230,2014-01-19 13:53:00
9:02 AM,-9999,-9999,N/A,29.69,0.5,WSW,9.2,-,N/A,Fog,Fog,240,2014-01-19 14:02:00
9:12 AM,-9999,-9999,N/A,29.69,1.0,WSW,9.2,-,N/A,,Overcast,240,2014-01-19 14:12:00
9:19 AM,-9999,-9999,N/A,29.69,1.2,SW,8.1,-,N/A,,Overcast,220,2014-01-19 14:19:00
9:34 AM,-9999,-9999,N/A,29.69,2.5,SW,8.1,-,N/A,,Overcast,220,2014-01-19 14:34:00
9:51 AM,-9999,-9999,N/A,29.69,2.5,SSW,10.4,18.4,N/A,,Overcast,210,2014-01-19 14:51:00
9:53 AM,-9999,-9999,N/A,29.68,2.5,SSW,11.5,18.4,N/A,,Overcast,210,2014-01-19 14:53:00
10:00 AM,-9999,-9999,N/A,29.69,4.0,SW,9.2,18.4,N/A,,Haze,220,2014-01-19 15:00:00
10:21 AM,-9999,-9999,N/A,29.68,10.0,SW,11.5,19.6,N/A,,Overcast,230,2014-01-19 15:21:00
10:53 AM,-9999,-9999,N/A,29.66,10.0,SW,11.5,24.2,N/A,,Mostly Cloudy,230,2014-01-19 15:53:00
11:53 AM,-9999,-9999,N/A,29.63,10.0,SW,16.1,27.6,N/A,,Mostly Cloudy,230,2014-01-19 16:53:00
12:53 PM,-9999,-9999,N/A,29.59,10.0,WSW,15.0,23.0,N/A,,Partly Cloudy,240,2014-01-19 17:53:00
1:53 PM,33.1,19.9,59,29.57,10.0,WSW,12.7,26.5,N/A,,Scattered Clouds,240,2014-01-19 18:53:00
2:53 PM,35.1,19.9,54,29.56,10.0,SW,11.5,21.9,N/A,,Clear,230,2014-01-19 19:53:00
3:53 PM,35.1,21.0,57,29.56,10.0,SW,11.5,-,N/A,,Clear,220,2014-01-19 20:53:00
4:53 PM,34.0,21.9,61,29.55,10.0,SW,11.5,17.3,N/A,,Partly Cloudy,230,2014-01-19 21:53:00
5:53 PM,33.1,21.0,61,29.57,10.0,SW,10.4,21.9,N/A,,Clear,230,2014-01-19 22:53:00
6:53 PM,32.0,21.0,64,29.58,10.0,SW,12.7,18.4,N/A,,Clear,220,2014-01-19 23:53:00
7:53 PM,32.0,19.9,61,29.59,10.0,SW,11.5,21.9,N/A,,Partly Cloudy,230,2014-01-20 00:53:00
8:53 PM,30.9,19.9,64,29.59,10.0,SW,12.7,20.7,N/A,,Clear,220,2014-01-20 01:53:00
9:53 PM,30.9,19.9,64,29.60,10.0,SSW,11.5,-,N/A,,Clear,210,2014-01-20 02:53:00
10:53 PM,30.9,19.9,64,29.59,10.0,SW,8.1,-,N/A,,Clear,220,2014-01-20 03:53:00
11:53 PM,30.0,19.9,66,29.57,10.0,SSW,6.9,-,N/A,,Clear,200,2014-01-20 04:53:00